Torna al catalogo

STARLINK-31899

AttivoComunicazioniVLEO
NORAD 59850·PAYLOAD·🇺🇸 United States

Lanciato May 23, 2024 da Cape Canaveral Space Force Station

Loading…

Prossimi Passaggi (prossime 24 ore)

TLE

AggiornatoSource: CelesTrak SupGP

Epoca: Sep 15, 2026, 02:44 UTC

1 59850C 24097R   26258.11437500  .00006376  00000+0  23093-3 0  2582
2 59850  43.0003 284.5255 0001441 263.9814 239.2812 15.27578259    12

Traccia STARLINK-31899 in tempo reale con AllMySat

Download on the App Store